Date String (YYYY-MM-DD hh:mm:ss) UTC,Instrument flags,absolute air pressure of the measurement (hPa),sample flow rate (lpm),inlet stack bypass flow (lpm),air temperature of the measurement (°C),ambient temperature measured by the external sensor (°C),aerosol sample conditioner tube jacket temperature (°C),OPC LED temperature (°C),internal box temperature (°C),relative humidity of the measurement (%),span deviation,mass concentration of particles derived from Lorenz-Mie calculation of OPC scattering (μg/m³),mass concentration of particles derived from Lorenz-Mie calculation of OPC scattering (μg/m³),mass concentration of particles derived from Lorenz-Mie calculation of OPC scattering (μg/m³)
DateTimeUTC,F1_M11,P_M11,Q1_M11,Q2_M11,T1_M11,T2_M11,T3_M11,T4_M11,T5_M11,U1_M11,ZSPAN_M11,X2_M11,X0_M11,X1_M11
2024-04-02 04:00:00,SystemResetWarning,0827.2,5.00,000.00,020.6,019.8,000.0,029.2,022.4,24.4,0000.0,0001.45,0001.51,0001.37
2024-04-02 04:01:00,SystemResetWarning,0827.2,5.01,000.00,020.6,019.8,000.0,029.2,022.4,24.4,0000.0,0001.54,0001.62,0001.45
2024-04-02 04:02:00,SystemResetWarning,0827.2,5.01,000.00,020.6,019.8,000.0,029.2,022.4,24.5,0000.0,0001.60,0001.67,0001.52
2024-04-02 04:03:00,SystemResetWarning,0827.2,4.99,000.00,020.6,019.7,000.0,029.2,022.4,24.5,0000.0,0001.65,0001.72,0001.57
2024-04-02 04:04:00,SystemResetWarning,0827.2,4.99,000.00,020.5,019.7,000.0,029.2,022.4,24.5,0000.0,0001.71,0001.78,0001.63
2024-04-02 04:05:00,SystemResetWarning,0827.2,4.99,000.00,020.5,019.7,000.0,029.2,022.4,24.5,0000.0,0001.77,0001.83,0001.68
2024-04-02 04:06:00,SystemResetWarning,0827.2,5.01,000.00,020.5,019.7,000.0,029.2,022.3,24.5,0000.0,0001.77,0001.82,0001.68
2024-04-02 04:07:00,SystemResetWarning,0827.2,5.02,000.00,020.5,019.7,000.0,029.2,022.3,24.6,0000.0,0001.71,0001.72,0001.64
2024-04-02 04:08:00,SystemResetWarning,0827.2,5.00,000.00,020.5,019.7,000.0,029.2,022.3,24.7,0000.0,0001.63,0001.64,0001.57
2024-04-02 04:09:00,SystemResetWarning,0827.2,4.99,000.00,020.5,019.7,000.0,029.2,022.3,24.7,0000.0,0001.57,0001.56,0001.51
2024-04-02 04:10:00,SystemResetWarning,0827.2,4.99,000.00,020.5,019.7,000.0,029.2,022.3,24.7,0000.0,0001.51,0001.50,0001.45
2024-04-02 04:11:00,SystemResetWarning,0827.2,5.00,000.00,020.5,019.7,000.0,029.2,022.3,24.8,0000.0,0001.43,0001.42,0001.38
2024-04-02 04:12:00,SystemResetWarning,0827.2,5.01,000.00,020.5,019.7,000.0,029.1,022.3,24.9,0000.0,0001.35,0001.31,0001.31
2024-04-02 04:13:00,SystemResetWarning,0827.3,5.01,000.00,020.5,019.7,000.0,029.1,022.3,25.0,0000.0,0001.28,0001.23,0001.24
2024-04-02 04:14:00,SystemResetWarning,0827.3,5.01,000.00,020.5,019.7,000.0,029.1,022.3,25.0,0000.0,0001.23,0001.18,0001.19
2024-04-02 04:15:00,SystemResetWarning,0827.3,4.98,000.00,020.5,019.7,000.0,029.1,022.3,25.0,0000.0,0001.18,0001.13,0001.15
2024-04-02 04:16:00,SystemResetWarning,0827.2,4.99,000.00,020.5,019.7,000.0,029.1,022.3,25.0,0000.0,0001.12,0001.07,0001.10
2024-04-02 04:17:00,SystemResetWarning,0827.2,5.01,000.00,020.4,019.7,000.0,029.1,022.2,25.0,0000.0,0001.10,0001.04,0001.09
2024-04-02 04:18:00,SystemResetWarning,0827.3,5.01,000.00,020.4,019.7,000.0,029.1,022.2,25.0,0000.0,0001.11,0001.04,0001.09
2024-04-02 04:19:00,SystemResetWarning,0827.3,4.99,000.00,020.4,019.7,000.0,029.1,022.2,25.1,0000.0,0001.10,0001.03,0001.09
2024-04-02 04:20:00,SystemResetWarning,0827.3,4.99,000.00,020.4,019.7,000.0,029.1,022.2,25.1,0000.0,0001.10,0001.01,0001.09
2024-04-02 04:21:00,SystemResetWarning,0827.3,5.01,000.00,020.4,019.6,000.0,029.1,022.2,25.1,0000.0,0001.11,0001.02,0001.10
2024-04-02 04:22:00,SystemResetWarning,0827.3,5.01,000.00,020.4,019.6,000.0,029.1,022.2,25.1,0000.0,0001.10,0001.01,0001.09
2024-04-02 04:23:00,SystemResetWarning,0827.3,4.99,000.00,020.4,019.6,000.0,029.1,022.2,25.1,0000.0,0001.10,0001.01,0001.09
2024-04-02 04:24:00,SystemResetWarning,0827.3,5.00,000.00,020.4,019.6,000.0,029.1,022.2,25.1,0000.0,0001.11,0001.03,0001.10
2024-04-02 04:25:00,SystemResetWarning,0827.3,5.00,000.00,020.4,019.6,000.0,029.0,022.2,25.1,0000.0,0001.12,0001.03,0001.11
2024-04-02 04:26:00,SystemResetWarning,0827.4,5.00,000.00,020.4,019.6,000.0,029.0,022.2,25.2,0000.0,0001.15,0001.07,0001.12
2024-04-02 04:27:00,SystemResetWarning,0827.4,5.01,000.00,020.4,019.6,000.0,029.0,022.2,25.2,0000.0,0001.17,0001.08,0001.14
2024-04-02 04:28:00,SystemResetWarning,0827.4,5.01,000.00,020.4,019.6,000.0,029.0,022.2,25.4,0000.0,0001.18,0001.08,0001.15
2024-04-02 04:29:00,SystemResetWarning,0827.4,5.00,000.00,020.3,019.6,000.0,029.0,022.2,25.7,0000.0,0001.19,0001.09,0001.16
2024-04-02 04:30:00,SystemResetWarning,0827.4,5.00,000.00,020.3,019.6,000.0,029.0,022.1,25.4,0000.0,0001.19,0001.08,0001.17
2024-04-02 04:31:00,SystemResetWarning,0827.3,5.00,000.00,020.3,019.6,000.0,029.0,022.1,25.3,0000.0,0001.20,0001.10,0001.18
2024-04-02 04:32:00,SystemResetWarning,0827.4,5.00,000.00,020.3,019.5,000.0,029.0,022.1,25.3,0000.0,0001.22,0001.12,0001.19
2024-04-02 04:33:00,SystemResetWarning,0827.4,4.99,000.00,020.3,019.5,000.0,029.0,022.1,25.3,0000.0,0001.25,0001.14,0001.21
2024-04-02 04:34:00,SystemResetWarning,0827.4,5.00,000.00,020.3,019.5,000.0,029.0,022.1,25.3,0000.0,0001.28,0001.17,0001.24
2024-04-02 04:35:00,SystemResetWarning,0827.4,5.00,000.00,020.3,019.5,000.0,029.0,022.1,25.2,0000.0,0001.29,0001.18,0001.25
2024-04-02 04:36:00,SystemResetWarning,0827.4,5.00,000.00,020.3,019.5,000.0,028.9,022.1,25.2,0000.0,0001.32,0001.31,0001.26
2024-04-02 04:37:00,SystemResetWarning,0827.4,4.99,000.00,020.3,019.5,000.0,028.9,022.1,25.2,0000.0,0001.31,0001.34,0001.27
2024-04-02 04:38:00,SystemResetWarning,0827.4,5.00,000.00,020.3,019.5,000.0,028.9,022.1,25.2,0000.0,0001.32,0001.36,0001.28
2024-04-02 04:39:00,SystemResetWarning,0827.4,5.01,000.00,020.3,019.5,000.0,028.9,022.1,25.2,0000.0,0001.33,0001.37,0001.29
2024-04-02 04:40:00,SystemResetWarning,0827.4,5.01,000.00,020.3,019.5,000.0,028.9,022.1,25.3,0000.0,0001.34,0001.40,0001.30
2024-04-02 04:41:00,SystemResetWarning,0827.4,5.00,000.00,020.3,019.5,000.0,028.9,022.0,25.3,0000.0,0001.37,0001.46,0001.32
2024-04-02 04:42:00,SystemResetWarning,0827.4,4.99,000.00,020.2,019.5,000.0,028.9,022.0,25.3,0000.0,0001.42,0001.52,0001.34
2024-04-02 04:43:00,SystemResetWarning,0827.6,4.99,000.00,020.2,019.5,000.0,028.9,022.0,25.4,0000.0,0001.45,0001.55,0001.37
2024-04-02 04:44:00,SystemResetWarning,0827.7,5.00,000.00,020.2,019.5,000.0,028.9,022.0,25.4,0000.0,0001.46,0001.56,0001.39
2024-04-02 04:45:00,SystemResetWarning,0827.9,5.00,000.00,020.2,019.5,000.0,028.9,022.0,25.5,0000.0,0001.49,0001.59,0001.41
2024-04-02 04:46:00,SystemResetWarning,0828.1,5.01,000.00,020.2,019.4,000.0,028.9,022.0,25.5,0000.0,0001.52,0001.62,0001.44
2024-04-02 04:47:00,SystemResetWarning,0827.8,5.00,000.00,020.2,019.4,000.0,028.9,022.0,25.5,0000.0,0001.54,0001.56,0001.47
2024-04-02 04:48:00,SystemResetWarning,0827.6,5.00,000.00,020.2,019.4,000.0,028.8,022.0,25.6,0000.0,0001.57,0001.55,0001.50
2024-04-02 04:49:00,SystemResetWarning,0827.6,5.00,000.00,020.2,019.4,000.0,028.8,022.0,25.6,0000.0,0001.62,0001.61,0001.54
2024-04-02 04:50:00,SystemResetWarning,0827.5,5.00,000.00,020.2,019.4,000.0,028.8,022.0,25.7,0000.0,0001.66,0001.65,0001.59
2024-04-02 04:51:00,SystemResetWarning,0827.5,4.99,000.00,020.2,019.4,000.0,028.8,022.0,25.6,0000.0,0001.71,0001.69,0001.63
2024-04-02 04:52:00,SystemResetWarning,0827.5,5.00,000.00,020.2,019.4,000.0,028.8,022.0,25.6,0000.0,0001.78,0001.74,0001.71
2024-04-02 04:53:00,SystemResetWarning,0827.5,5.00,000.00,020.2,019.4,000.0,028.8,022.0,25.7,0000.0,0001.82,0001.76,0001.76
2024-04-02 04:54:00,SystemResetWarning,0827.5,5.00,000.00,020.2,019.4,000.0,028.8,022.0,25.7,0000.0,0001.83,0001.74,0001.79
2024-04-02 04:55:00,SystemResetWarning,0827.6,4.99,000.00,020.2,019.4,000.0,028.8,022.0,25.7,0000.0,0001.87,0001.86,0001.83
2024-04-02 04:56:00,SystemResetWarning,0827.6,5.00,000.00,020.2,019.4,000.0,028.8,022.0,25.7,0000.0,0001.95,0001.96,0001.90
2024-04-02 04:57:00,SystemResetWarning,0827.7,5.00,000.00,020.2,019.4,000.0,028.8,022.0,25.7,0000.0,0002.01,0002.34,0001.96
2024-04-02 04:58:00,SystemResetWarning,0827.7,5.00,000.00,020.2,019.4,000.0,028.8,022.0,25.7,0000.0,0002.07,0002.47,0002.01
2024-04-02 04:59:00,SystemResetWarning,0827.8,5.00,000.00,020.2,019.4,000.0,028.8,022.0,26.2,0000.0,0002.12,0002.50,0002.06
